Temperature
2 2 3 3 4 4 5 5 5 6 6 6 7 7 7 7 7 8 8 8 8 8 8 8 8 8 8 7 7 7 7 7 7 7 7 7 6 6 6 6 6 6 6
1 1 2 2 3 3 4 4 5 5 5 6 6 6 6 7 7 7 7 7 7 7 7 7 7 7 7 7 7 7 7 7 7 7 7 6 6 6 6 6 6 6 6
0 1 1 2 2 2 3 4 4 4 5 5 5 6 6 6 6 7 7 7 7 7 7 7 7 7 7 7 7 7 7 6 6 6 6 6 6 6 6 6 6 5 5
-1 -0 0 1 1 2 2 3 3 3 4 4 5 5 5 5 6 6 6 6 6 6 6 6 6 6 6 6 6 6 6 6 6 6 6 6 5 5 5 5 5 5 5
-2 -1 -1 -0 0 1 1 2 2 3 3 3 4 4 4 5 5 5 5 6 6 6 6 6 6 6 6 6 6 6 5 5 5 5 5 5 5 5 5 5 5 4 4
-2 -2 -1 -1 -0 0 1 1 1 2 2 3 3 3 4 4 4 4 5 5 5 5 5 5 5 5 5 5 5 5 5 5 5 5 5 5 5 5 5 4 4 4 4
-3 -3 -2 -2 -1 -1 -0 0 1 1 2 2 2 3 3 3 4 4 4 4 4 5 5 5 5 5 4 5 5 5 5 5 4 4 4 4 4 4 4 4 3 3 3
-4 -3 -3 -3 -2 -2 -1 -0 -0 0 1 1 2 2 2 2 3 3 3 3 3 4 4 4 4 4 4 4 4 4 4 4 4 4 4 4 4 4 3 3 3 3 2
-5 -4 -4 -3 -3 -2 -2 -1 -1 -0 0 1 1 1 1 2 2 2 2 2 3 3 3 3 3 3 3 3 3 3 4 4 3 3 3 3 3 3 3 2 2 2 2
-5 -5 -4 -4 -3 -3 -2 -2 -2 -1 -1 -0 0 0 1 1 1 1 1 2 2 2 2 3 3 3 3 3 3 3 3 3 3 3 3 2 2 2 2 2 2 2 1
-6 -5 -5 -4 -4 -3 -3 -3 -2 -2 -1 -1 -1 -0 0 0 1 1 1 1 1 1 2 2 2 2 2 2 2 2 2 2 2 2 2 2 2 2 1 1 1 1 1
-6 -6 -5 -5 -4 -4 -4 -3 -3 -3 -2 -2 -1 -1 -1 -0 -0 -0 0 0 0 0 1 1 1 1 1 1 1 1 1 1 1 1 1 1 1 1 1 1 1 0 0
-6 -6 -6 -5 -5 -5 -4 -4 -3 -3 -3 -2 -2 -2 -1 -1 -1 -1 -1 -0 -0 -0 0 0 0 0 0 0 1 1 0 0 0 0 0 0 0 0 0 -0 -0 -0 -1
-7 -6 -6 -6 -5 -5 -5 -4 -4 -4 -3 -3 -3 -3 -2 -2 -2 -1 -1 -1 -1 -1 -1 -1 -0 -0 -0 -0 -0 -0 -0 -0 -0 -0 -0 -0 -0 -1 -1 -1 -1 -1 -1
-7 -7 -7 -7 -6 -6 -5 -5 -5 -4 -4 -4 -3 -3 -3 -3 -2 -2 -2 -2 -2 -1 -1 -1 -1 -1 -1 -1 -1 -1 -1 -1 -1 -1 -1 -1 -1 -1 -1 -1 -2 -2 -2
-8 -8 -8 -7 -7 -7 -6 -6 -5 -5 -5 -4 -4 -4 -4 -3 -3 -3 -3 -3 -3 -2 -2 -2 -2 -2 -2 -2 -2 -1 -1 -1 -1 -1 -1 -2 -2 -2 -2 -2 -2 -3 -3
-8 -8 -8 -8 -8 -8 -7 -7 -6 -5 -5 -5 -5 -4 -4 -4 -4 -4 -4 -3 -3 -3 -3 -3 -3 -3 -3 -2 -2 -2 -2 -2 -2 -2 -2 -2 -2 -3 -3 -3 -3 -3 -3
-9 -9 -9 -8 -8 -8 -8 -7 -7 -7 -6 -6 -5 -5 -5 -5 -4 -4 -4 -4 -4 -4 -3 -3 -3 -3 -3 -3 -3 -3 -3 -3 -3 -3 -3 -3 -3 -3 -3 -3 -4 -4 -4
-9 -9 -9 -9 -8 -8 -8 -8 -8 -8 -7 -7 -6 -6 -6 -5 -5 -5 -5 -5 -4 -4 -4 -4 -4 -4 -4 -4 -3 -3 -3 -3 -3 -3 -4 -4 -4 -4 -4 -4 -4 -4 -5
-9 -9 -9 -9 -9 -9 -9 -9 -9 -8 -8 -8 -7 -7 -7 -6 -6 -6 -5 -5 -5 -5 -5 -5 -5 -5 -4 -4 -4 -4 -4 -4 -4 -4 -4 -4 -4 -5 -5 -5 -5 -5 -5
-10 -9 -9 -9 -9 -9 -9 -9 -9 -9 -9 -8 -8 -8 -8 -7 -7 -7 -6 -6 -6 -6 -6 -5 -5 -5 -5 -5 -5 -5 -5 -5 -5 -5 -5 -5 -5 -5 -5 -5 -5 -6 -6
-10 -10 -10 -10 -10 -10 -10 -10 -9 -9 -9 -9 -9 -8 -8 -8 -8 -8 -7 -7 -7 -7 -6 -6 -6 -6 -6 -5 -5 -5 -5 -5 -6 -6 -6 -6 -6 -6 -6 -6 -6 -6 -6
-10 -10 -10 -10 -10 -10 -10 -10 -10 -10 -10 -10 -9 -9 -9 -9 -9 -8 -8 -8 -8 -7 -7 -7 -7 -6 -6 -6 -6 -6 -6 -6 -6 -6 -6 -6 -6 -6 -6 -6 -7 -7 -7
-11 -11 -11 -11 -11 -11 -10 -10 -10 -10 -10 -10 -10 -10 -9 -9 -9 -9 -9 -9 -8 -8 -8 -8 -7 -7 -7 -7 -7 -7 -7 -7 -7 -7 -7 -7 -7 -7 -7 -7 -7 -7 -7
-11 -11 -11 -11 -11 -11 -11 -11 -11 -11 -11 -10 -10 -10 -10 -10 -10 -9 -9 -9 -9 -9 -8 -8 -8 -8 -8 -7 -7 -7 -7 -7 -7 -7 -7 -7 -7 -7 -7 -7 -7 -7 -8
-12 -12 -12 -12 -12 -11 -11 -11 -11 -11 -11 -11 -10 -10 -10 -10 -10 -10 -10 -9 -9 -9 -9 -9 -8 -8 -8 -8 -8 -8 -8 -8 -8 -8 -8 -8 -8 -8 -8 -8 -8 -8 -8
Wind_Speed
5 4 5 4 3 3 2 3 3 2 2 3 3 3 4 5 5 5 5 6 7 6 5 6 6 5 4 3 3 3 3 3 3 2 1 1 1 1 2 2 3 4 4
5 5 4 4 4 3 3 3 3 3 3 3 3 3 4 5 5 6 6 6 7 7 6 6 6 5 5 4 4 4 3 3 4 4 2 1 2 2 2 2 3 4 4
6 5 5 4 4 4 4 4 3 3 3 2 2 3 3 4 5 6 6 6 6 6 6 7 6 6 6 4 4 4 3 3 3 3 2 1 1 1 1 1 2 2 4
6 5 5 5 4 4 4 4 4 3 3 3 3 3 3 4 4 4 5 5 5 5 5 6 6 7 7 6 5 5 4 4 3 3 2 1 1 1 1 2 2 2 2
7 6 5 5 5 4 4 4 4 3 3 3 2 3 3 3 3 4 4 4 5 5 5 5 5 6 6 6 5 6 5 4 4 3 3 2 2 2 3 2 2 2 2
7 7 6 5 5 4 4 3 3 3 3 3 3 2 3 3 3 5 4 4 4 5 5 5 5 6 6 7 7 8 8 7 6 4 3 4 4 4 3 2 2 1 3
7 7 6 6 5 5 5 4 3 3 3 3 3 3 3 3 3 4 5 4 4 4 5 5 4 4 5 4 5 6 6 7 8 6 6 6 5 5 4 3 3 3 3
7 7 6 6 5 5 4 4 4 4 3 3 3 4 4 4 3 4 4 3 3 4 4 5 5 5 5 5 4 4 3 4 5 5 5 5 5 5 6 5 4 2 1
7 7 7 6 5 5 5 5 4 4 4 3 3 3 4 3 4 4 4 3 3 3 3 4 5 5 7 7 6 5 4 3 3 5 5 4 5 5 5 3 3 2 2
8 8 7 6 5 5 5 5 5 4 4 3 3 3 3 3 4 5 4 3 3 3 3 4 5 6 7 7 7 6 6 4 3 2 2 2 2 4 5 4 4 3 2
8 7 6 5 5 5 5 5 4 3 3 3 3 3 3 3 4 5 4 3 3 3 3 3 3 5 6 6 6 6 7 5 4 4 2 1 1 1 2 2 3 3 3
7 6 6 5 5 4 4 4 4 3 3 3 3 3 2 2 3 4 4 3 3 3 4 3 3 5 5 5 5 5 5 5 3 3 3 2 2 2 1 1 2 1 2
7 7 6 6 5 4 4 4 3 3 3 3 3 3 2 2 2 4 4 3 3 3 3 4 4 5 5 4 5 5 5 4 4 4 4 3 2 2 2 1 1 1 1
7 7 6 5 5 4 4 4 3 3 3 3 3 3 2 2 2 2 2 2 2 2 2 3 4 4 4 4 3 3 3 4 4 4 3 2 2 2 2 1 1 1 0
7 6 6 6 5 4 4 3 4 4 4 4 3 3 3 3 3 4 3 2 2 3 2 2 2 3 3 3 2 2 3 3 3 3 3 3 3 3 2 2 1 1 1
6 6 5 5 4 4 4 4 6 5 6 5 4 4 3 4 5 5 4 4 4 3 2 3 3 3 4 4 4 3 3 3 3 3 3 3 3 3 3 2 1 2 2
6 6 5 5 4 4 4 4 5 5 6 5 5 4 4 4 5 4 3 2 2 3 2 3 3 3 3 3 3 3 3 3 3 3 3 3 3 3 3 3 3 2 2
6 7 6 4 4 4 4 4 3 3 4 4 5 6 5 4 4 3 2 0 0 1 1 2 2 3 3 3 3 3 3 3 3 3 3 3 3 3 3 3 3 3 3
5 5 5 4 4 4 4 3 3 3 3 4 4 5 7 5 4 2 1 0 1 1 1 1 1 2 2 2 2 2 3 3 3 3 3 3 3 3 3 3 3 4 3
5 8 7 5 4 4 3 3 3 3 3 4 4 4 4 3 2 2 1 0 0 1 1 1 1 1 2 2 2 2 2 2 3 3 3 3 3 3 3 4 4 4 3
4 6 8 6 4 3 3 3 3 3 3 4 4 5 5 3 2 2 2 1 1 1 1 1 1 1 1 2 2 2 3 3 3 3 3 3 3 3 3 4 4 4 3
4 4 4 4 4 4 3 3 3 3 3 4 4 4 6 4 3 2 2 2 2 1 1 1 1 1 1 1 2 2 3 3 3 3 3 3 3 3 3 3 4 3 4
3 4 4 4 3 5 5 4 3 3 3 4 4 4 3 3 3 2 2 2 2 2 2 1 1 2 2 2 2 2 3 3 3 3 3 3 3 4 4 4 4 4 4
3 3 3 4 3 3 3 3 3 3 3 3 3 3 3 3 3 3 3 2 2 3 3 2 2 2 2 2 2 2 3 4 4 4 5 4 4 4 4 4 4 5 5
3 3 3 3 3 3 3 3 3 3 3 3 3 3 3 3 3 3 3 3 3 3 3 4 3 3 3 3 3 4 4 4 4 5 5 4 4 4 4 4 4 5 5
3 3 3 3 3 3 3 3 3 3 3 3 3 3 3 3 3 3 3 3 3 3 4 4 4 4 4 4 4 5 5 5 5 5 5 4 4 4 4 4 5 5 5
Wind_Direction
342 337 333 329 327 328 306 293 281 263 240 229 233 227 222 211 198 197 197 190 195 198 195 194 198 186 184 185 177 171 173 167 198 227 229 230 204 218 247 243 247 242 246
336 334 329 329 331 328 318 309 304 277 261 245 236 233 236 224 204 199 199 196 198 200 201 197 201 190 190 187 181 182 186 181 183 207 219 211 224 217 223 241 263 252 249
333 330 328 328 326 316 309 304 298 283 270 263 243 230 240 232 214 207 201 200 201 200 198 198 202 194 197 194 190 192 195 193 185 188 207 206 232 212 215 273 281 275 269
332 326 320 316 311 305 301 301 295 284 265 254 246 243 247 237 217 208 201 198 199 198 199 200 199 199 200 194 196 199 192 190 182 176 191 200 215 211 178 225 268 272 278
334 326 317 310 307 305 301 299 297 290 277 266 255 265 263 238 219 204 203 198 195 196 200 202 203 203 199 195 199 197 189 192 185 181 192 200 207 196 213 211 237 265 274
333 327 321 320 319 312 305 300 298 299 291 274 257 258 264 252 234 213 205 202 201 201 204 206 205 205 207 204 201 195 191 190 191 192 206 213 221 214 208 206 205 233 270
328 326 329 329 325 320 316 313 301 297 289 268 260 252 258 254 244 222 210 204 206 206 202 203 210 209 203 196 199 199 203 201 195 193 204 216 210 205 197 209 214 221 240
328 327 324 322 315 310 309 306 296 290 277 263 260 256 258 254 247 231 210 201 207 209 207 202 203 207 202 189 189 194 204 208 207 201 204 211 209 203 201 205 206 209 261
326 322 318 314 308 305 299 294 291 287 284 272 260 256 248 252 246 233 206 197 204 210 209 202 200 206 202 188 185 191 202 216 204 193 197 198 198 196 183 155 164 183 242
318 316 313 310 304 295 288 289 289 284 281 279 279 259 247 249 249 241 212 197 203 212 215 211 207 206 201 192 191 191 202 208 177 162 154 166 172 175 174 175 179 193 219
317 319 317 312 303 293 288 286 282 278 276 272 275 268 256 259 255 246 224 206 204 206 211 211 211 203 202 201 200 202 206 192 177 171 169 160 142 158 175 182 182 191 208
324 324 320 316 308 303 298 294 286 266 261 261 266 272 269 266 265 250 237 226 215 208 213 210 205 201 208 210 207 199 183 168 165 169 177 189 194 199 196 184 186 198 215
331 328 322 316 311 307 299 291 287 267 245 251 251 252 266 276 266 261 248 228 231 230 221 207 203 201 204 205 199 185 172 167 170 181 194 205 207 193 159 127 71 76 50
331 328 328 325 319 317 308 296 286 269 250 244 243 245 254 265 260 240 234 231 232 229 210 196 196 198 195 189 188 185 180 181 184 192 195 192 174 174 185 190 201 184 300
331 330 331 328 322 320 315 307 297 284 265 251 238 239 238 253 264 261 246 234 221 215 194 180 184 186 189 188 184 185 179 175 182 183 182 186 192 194 203 190 191 191 227
333 333 331 331 329 328 329 333 334 323 321 306 288 278 276 268 275 274 269 257 238 209 193 191 199 200 200 199 197 197 191 188 185 182 183 190 198 198 196 193 196 198 225
329 328 330 333 334 335 336 337 334 342 347 350 342 319 297 288 283 273 265 266 235 205 201 200 206 206 206 202 199 197 199 192 183 181 185 191 196 197 196 197 197 211 233
327 326 329 329 332 331 332 330 331 339 344 349 351 350 340 318 301 280 259 333 225 203 197 204 211 205 206 206 200 195 189 177 175 179 180 185 193 198 202 205 204 211 227
326 328 329 330 330 331 333 337 343 344 342 339 340 341 345 345 343 338 355 148 197 226 221 210 215 212 212 210 199 189 184 185 179 177 183 189 194 195 205 211 215 222 231
324 327 333 333 330 333 341 347 347 347 347 346 342 338 340 357 11 2 12 17 237 246 250 234 226 226 217 209 196 186 181 185 185 187 191 193 196 201 207 210 216 220 227
320 324 328 329 334 337 342 344 343 344 343 341 337 340 346 2 7 4 1 356 335 313 303 297 260 240 231 211 200 193 190 194 195 197 202 204 202 211 216 215 218 223 228
321 326 333 335 338 341 337 335 338 338 334 332 338 347 354 4 7 358 353 345 343 342 320 320 303 277 255 229 205 197 201 204 201 201 208 211 213 217 219 219 221 226 229
331 334 337 338 338 337 342 346 345 343 343 344 342 342 348 353 350 346 343 341 342 331 320 301 291 284 283 267 236 215 208 214 215 209 211 218 219 220 221 224 224 227 233
331 332 334 334 338 340 339 339 339 337 338 337 336 337 340 342 337 334 333 331 324 321 315 301 283 277 277 283 271 251 238 236 229 220 213 216 221 226 228 228 231 232 236
332 328 329 330 332 332 332 331 331 330 329 328 328 328 330 329 326 324 322 322 319 316 312 305 294 287 274 270 269 263 251 244 240 231 224 218 220 225 229 231 233 235 238
327 325 325 326 326 323 322 322 322 321 320 319 317 315 314 312 310 309 310 313 311 309 307 304 297 288 281 277 270 264 254 249 247 244 234 222 223 230 232 238 234 234 238
Height
1485 1485 1486 1486 1487 1488 1489 1491 1492 1494 1495 1497 1499 1501 1503 1505 1506 1509 1511 1514 1516 1519 1521 1523 1525 1527 1529 1531 1533 1534 1535 1537 1537 1538 1540 1541 1542 1543 1543 1544 1545 1545 1545
1482 1482 1483 1483 1484 1484 1485 1486 1488 1489 1491 1493 1494 1496 1498 1500 1502 1504 1506 1509 1511 1514 1516 1518 1520 1523 1525 1526 1528 1529 1531 1532 1533 1534 1535 1536 1537 1538 1539 1540 1540 1540 1541
1480 1480 1479 1480 1480 1480 1481 1482 1484 1485 1486 1488 1490 1491 1493 1495 1497 1499 1501 1503 1506 1508 1511 1513 1515 1517 1519 1521 1523 1524 1526 1528 1529 1529 1530 1531 1533 1534 1535 1535 1536 1536 1536
1477 1476 1476 1476 1476 1477 1477 1478 1479 1481 1482 1484 1485 1487 1489 1491 1492 1494 1496 1498 1500 1503 1505 1508 1510 1512 1514 1516 1518 1520 1521 1523 1524 1524 1525 1526 1528 1529 1530 1531 1531 1532 1532
1474 1473 1473 1473 1473 1473 1474 1474 1475 1476 1478 1479 1481 1482 1484 1486 1487 1489 1491 1493 1495 1498 1500 1502 1505 1507 1509 1511 1513 1515 1516 1517 1518 1519 1520 1522 1523 1524 1525 1526 1526 1526 1527
1471 1470 1469 1469 1469 1469 1470 1470 1471 1472 1473 1475 1476 1478 1479 1481 1482 1484 1487 1489 1491 1493 1495 1497 1499 1501 1504 1506 1508 1510 1511 1512 1513 1514 1516 1517 1518 1519 1520 1521 1521 1522 1522
1469 1467 1466 1465 1465 1466 1466 1466 1467 1468 1469 1470 1472 1473 1474 1475 1477 1480 1482 1484 1486 1488 1490 1492 1494 1496 1498 1501 1503 1505 1506 1508 1509 1511 1511 1512 1513 1515 1516 1516 1516 1517 1517
1466 1464 1463 1462 1462 1462 1462 1462 1463 1464 1465 1466 1467 1469 1470 1471 1473 1475 1477 1479 1481 1482 1484 1486 1488 1490 1493 1495 1497 1499 1501 1502 1504 1505 1507 1508 1509 1510 1511 1512 1512 1513 1513
1463 1461 1460 1459 1458 1458 1458 1459 1459 1460 1460 1462 1463 1464 1465 1466 1468 1470 1472 1473 1475 1477 1479 1481 1483 1485 1487 1490 1492 1494 1495 1497 1499 1501 1502 1503 1504 1506 1506 1507 1507 1508 1507
1460 1457 1456 1455 1455 1455 1455 1455 1456 1456 1456 1457 1458 1459 1460 1461 1463 1465 1467 1469 1470 1472 1474 1476 1478 1480 1482 1484 1486 1488 1490 1492 1494 1495 1497 1498 1499 1500 1501 1502 1503 1503 1503
1457 1455 1453 1452 1452 1451 1451 1452 1452 1452 1452 1453 1454 1455 1456 1457 1458 1460 1462 1464 1465 1467 1469 1471 1473 1475 1477 1479 1481 1483 1485 1487 1489 1490 1491 1492 1494 1495 1496 1497 1498 1499 1498
1455 1453 1451 1450 1449 1448 1448 1448 1448 1448 1448 1449 1450 1450 1451 1453 1454 1456 1458 1459 1461 1463 1464 1466 1468 1470 1472 1475 1476 1478 1480 1482 1484 1485 1486 1487 1488 1490 1491 1492 1493 1493 1493
1453 1450 1449 1447 1446 1445 1445 1444 1444 1444 1445 1445 1446 1446 1447 1448 1450 1452 1453 1455 1457 1458 1460 1461 1464 1466 1468 1470 1472 1473 1475 1477 1478 1479 1480 1482 1484 1485 1486 1486 1487 1487 1487
1451 1448 1446 1445 1443 1442 1442 1441 1441 1440 1441 1441 1442 1442 1443 1444 1446 1448 1449 1450 1452 1454 1455 1457 1459 1461 1463 1465 1467 1468 1470 1472 1473 1474 1476 1477 1479 1480 1480 1481 1481 1482 1482
1449 1446 1444 1442 1440 1439 1438 1438 1437 1437 1437 1438 1438 1439 1439 1440 1442 1444 1445 1446 1448 1450 1451 1453 1454 1456 1458 1460 1462 1464 1465 1467 1469 1470 1471 1472 1474 1475 1475 1476 1476 1477 1477
1447 1445 1443 1440 1439 1437 1435 1435 1434 1434 1434 1435 1435 1436 1436 1438 1439 1440 1442 1443 1444 1446 1447 1448 1450 1452 1453 1455 1457 1459 1461 1462 1464 1466 1467 1468 1469 1470 1470 1471 1471 1472 1472
1446 1444 1441 1439 1437 1435 1434 1432 1431 1431 1432 1432 1432 1432 1433 1434 1435 1436 1438 1439 1441 1442 1443 1444 1446 1448 1449 1451 1453 1454 1456 1458 1459 1461 1462 1463 1464 1465 1465 1466 1466 1467 1467
1445 1442 1440 1437 1435 1433 1432 1430 1429 1428 1428 1428 1429 1429 1429 1430 1431 1433 1434 1435 1436 1438 1439 1440 1442 1444 1445 1447 1449 1450 1452 1453 1455 1456 1457 1458 1459 1460 1460 1461 1461 1462 1462
1443 1441 1438 1436 1434 1432 1430 1429 1428 1427 1426 1426 1426 1426 1427 1427 1428 1429 1430 1431 1432 1434 1435 1437 1438 1440 1442 1443 1445 1446 1447 1449 1450 1451 1452 1453 1454 1455 1455 1456 1457 1457 1458
1442 1440 1437 1435 1433 1431 1429 1428 1426 1426 1425 1424 1425 1425 1425 1424 1425 1426 1427 1429 1429 1431 1432 1433 1435 1437 1438 1439 1441 1442 1443 1444 1445 1446 1447 1448 1449 1450 1450 1451 1452 1452 1452
1440 1438 1436 1434 1432 1430 1429 1427 1426 1425 1425 1424 1424 1424 1424 1423 1423 1424 1425 1426 1427 1428 1429 1430 1431 1433 1434 1436 1437 1438 1439 1439 1440 1441 1442 1443 1444 1445 1446 1446 1447 1447 1447
1439 1437 1435 1433 1431 1430 1428 1427 1426 1425 1425 1424 1423 1423 1422 1422 1422 1422 1423 1423 1424 1425 1426 1427 1428 1430 1431 1432 1433 1434 1434 1435 1436 1437 1438 1438 1439 1440 1441 1441 1442 1442 1442
1438 1436 1434 1433 1431 1430 1428 1427 1426 1425 1424 1423 1423 1422 1421 1421 1421 1421 1421 1422 1422 1423 1424 1424 1425 1426 1427 1428 1429 1429 1430 1430 1431 1432 1433 1434 1434 1435 1436 1436 1437 1437 1437
1436 1435 1433 1432 1430 1429 1427 1426 1425 1424 1423 1423 1422 1422 1421 1421 1420 1420 1420 1420 1421 1421 1421 1422 1422 1423 1423 1424 1425 1425 1426 1426 1427 1428 1429 1429 1430 1430 1431 1431 1432 1432 1433
1435 1433 1432 1430 1429 1427 1426 1425 1424 1423 1422 1422 1421 1421 1420 1420 1419 1419 1419 1419 1418 1418 1419 1419 1419 1419 1420 1420 1420 1421 1421 1422 1423 1424 1424 1425 1425 1426 1426 1427 1427 1427 1428
1433 1432 1430 1429 1427 1426 1425 1424 1423 1422 1421 1421 1420 1419 1419 1418 1418 1417 1417 1417 1416 1416 1416 1416 1416 1416 1416 1416 1416 1417 1417 1418 1419 1419 1420 1420 1421 1421 1422 1422 1422 1423 1423